Inquirer Daily News

Weather

Get conditions and forecasts for any City, State, ZIP code or Country:  
Trenton, NJ
on Tuesday, November 13, 2012

Tuesday
Previous Day Next Day
Daily Summary
 ActualAverageRecord
Temperature
Mean Temperature °F 47°F  
Max Temperature 61°F 56°F 73°F (1912)
Min Temperature 36°F 38°F 20°F (1986)
Degree Days
Heating Degree Days 16 18  
Month to date heating degree days 271 216  
Since 1 July heating degree days 578 613  
Cooling Degree Days 0 0  
Month to date cooling degree days 0 0  
Year to date cooling degree days 1234 965  
Moisture
Dew Point 40°F   
Average Humidity 75    
Maximum Humidity 92    
Minimum Humidity 57    
Precipitation
Precipitation 0.22 in 0.09 in 1.58 in (1937)
Month to date precipitation 0.58 1.36  
Year to date precipitation 32.63 40.79  
Wind
Wind Speed 9 mph   
Max Wind Speed 22 mph   
Max Gust Speed 30 mph   
Visibility 9 miles   
Events Rain   

Key: T is trace of precipitation, MM is missing value
Source: NWS Daily Summary
Time(EST)TemperatureDew PointHumidity Pressure Visibility Wind DirectionWind SpeedGust SpeedPrecipitationEvents Conditions
12:53 AM 60.1°F 57.0°F 90% 30.13 in 10.0 miles SSW 8.1 mph - N/A   Overcast
1:53 AM 60.1°F 57.0°F 90% 30.12 in 10.0 miles SSW 6.9 mph - N/A   Overcast
2:53 AM 61.0°F 57.9°F 90% 30.11 in 10.0 miles SSW 6.9 mph - N/A   Mostly Cloudy
3:11 AM 55.4°F 50.0°F 82% 30.16 in 10.0 miles NW 19.6 mph 29.9 mph N/A   Overcast
3:17 AM 53.6°F 48.2°F 82% 30.17 in 6.0 miles NNW 17.3 mph 29.9 mph 0.03 in Rain Light Rain
3:53 AM 50.0°F 46.0°F 86% 30.17 in 10.0 miles NNW 13.8 mph 23.0 mph 0.07 in   Overcast
4:04 AM 50.0°F 46.4°F 87% 30.19 in 10.0 miles NNW 12.7 mph - N/A   Overcast
4:53 AM 48.9°F 45.0°F 86% 30.19 in 10.0 miles North 11.5 mph 19.6 mph 0.02 in Rain Light Rain
5:53 AM 46.9°F 44.1°F 90% 30.21 in 10.0 miles NNW 10.4 mph - 0.03 in   Overcast
6:53 AM 46.0°F 42.1°F 86% 30.26 in 10.0 miles NNW 12.7 mph 20.7 mph N/A   Overcast
7:29 AM 46.4°F 42.8°F 87% 30.30 in 9.0 miles NNW 9.2 mph - 0.00 in Rain Light Rain
7:53 AM 45.0°F 42.1°F 90% 30.28 in 6.0 miles NNW 9.2 mph - 0.00 in Rain Light Rain
8:02 AM 44.6°F 42.8°F 93% 30.29 in 5.0 miles North 9.2 mph - 0.01 in Rain Light Rain
8:12 AM 44.6°F 42.8°F 93% 30.29 in 4.0 miles North 6.9 mph - 0.02 in Rain Light Rain
8:19 AM 44.6°F 42.8°F 93% 30.30 in 5.0 miles NNW 8.1 mph - 0.03 in Rain Rain
8:40 AM 44.6°F 42.8°F 93% 30.31 in 5.0 miles NNW 5.8 mph - 0.05 in Rain Light Rain
8:53 AM 45.0°F 42.1°F 90% 30.30 in 4.0 miles NNW 5.8 mph - 0.06 in Rain Light Rain
9:09 AM 44.6°F 41.0°F 87% 30.31 in 9.0 miles North 6.9 mph - 0.01 in Rain Light Rain
9:53 AM 45.0°F 41.0°F 86% 30.30 in 10.0 miles NNW 8.1 mph - 0.02 in Rain Light Rain
10:14 AM 44.6°F 41.0°F 87% 30.33 in 10.0 miles NNW 5.8 mph - 0.00 in Rain Light Rain
10:53 AM 45.0°F 39.9°F 82% 30.32 in 10.0 miles North 10.4 mph - 0.00 in   Overcast
11:53 AM 44.1°F 37.9°F 79% 30.32 in 10.0 miles North 8.1 mph - 0.01 in Rain Light Rain
12:13 PM 44.6°F 37.4°F 76% 30.31 in 9.0 miles North 10.4 mph - 0.01 in Rain Light Rain
12:46 PM 44.6°F 37.4°F 76% 30.31 in 10.0 miles North 6.9 mph - 0.01 in   Overcast
12:53 PM 45.0°F 39.0°F 80% 30.30 in 10.0 miles North 8.1 mph - 0.01 in   Overcast
1:38 PM 44.6°F 37.4°F 76% 30.32 in 10.0 miles North 8.1 mph - N/A   Scattered Clouds
1:53 PM 45.0°F 37.0°F 74% 30.31 in 10.0 miles North 5.8 mph - N/A   Scattered Clouds
2:53 PM 46.0°F 37.0°F 71% 30.30 in 10.0 miles North 4.6 mph - N/A   Mostly Cloudy
3:53 PM 46.9°F 34.0°F 61% 30.31 in 10.0 miles NNE 5.8 mph - N/A   Clear
4:53 PM 44.1°F 33.1°F 65% 30.34 in 10.0 miles North 8.1 mph - N/A   Clear
5:53 PM 44.1°F 30.9°F 60% 30.35 in 10.0 miles North 9.2 mph - N/A   Overcast
6:53 PM 44.1°F 30.0°F 58% 30.39 in 10.0 miles North 10.4 mph - N/A   Overcast
7:53 PM 42.1°F 28.0°F 58% 30.40 in 10.0 miles NNE 13.8 mph 19.6 mph N/A   Mostly Cloudy
8:53 PM 37.9°F 28.0°F 68% 30.43 in 10.0 miles North 10.4 mph 19.6 mph N/A   Clear
9:53 PM 37.9°F 27.0°F 65% 30.43 in 10.0 miles North 6.9 mph - N/A   Clear
10:53 PM 37.0°F 26.1°F 65% 30.43 in 10.0 miles North 8.1 mph - N/A   Clear
11:53 PM 37.0°F 26.1°F 65% 30.44 in 10.0 miles North 8.1 mph - N/A   Clear
Astronomy
Sunrise:06:43 AM (EST) Moon Rise:06:18 AM (EST)11/13
Sunset:04:43 PM (EST) Moon Set:04:34 PM (EST)11/13
Moon Phase
Nov. 13 Nov. 13 Nov. 20 Nov. 28 Dec. 06

Copyright © 2014 The Weather Underground, Inc.